Location: Göttingen
(51.5413°N, 9.9158°E)
Time: 16:38:53
(UTC+02:00)

Tiros 1 despin weight - Pass Details

Date: 31 May 2022
Orbit: 591 x 639 km, 48.2° (Epoch: 03 July)

Event Time Altitude Azimuth Distance (km) Brightness Sun altitude
Rises 23:57:06 0° 275° (W) 2,844 ? -14.5°
Reaches altitude 10° 00:00:23 10° 250° (WSW) 1,929 ? -14.6°
Maximum altitude 00:02:38 14° 219° (SW) 1,681 ? -14.7°
Enters shadow 00:03:12 14° 211° (SSW) 1,696 ? -14.8°
